Find Starlink 30299

NORAD ID: 57650 Int'l Des: 2023-122 Owner: SPXS Country: US Constellation: starlink operational
LEOCIRCULAR

实时位置

正在加载3D地球...

关于 Starlink 30299

正在加载描述...

即将过境

Passes for default location (London). Set your location on the main map for personalized predictions.

高度历史

Loading altitude history...

两行轨道根数

1 57650U 23122U 26104.42852785 .00001103 00000-0 49592-4 0 9995
2 57650 42.9994 250.5855 0001281 279.0347 81.0359 15.27577828147679
Epoch: Apr 14, 2026 • Age: 17 hours

当前状态

高度 483.4 km
速度 7.63 km/s
星下点 25.98°N, 18.67°E
发射日期 Aug 17, 2023
运行时间 2.6 years
类型 internet

技术详情

分类 Payload
质量 730.00 kg
干质量 700.00 kg
总质量 730.00 kg
长度 0.30 m
直径 4.10 m
跨度 29.00 m
形状 Box + pan
制造商 SPXS
平台类型 Starlink V2M
阶段状态 In Orbit
所有者/国家 SPXS/US

Most Searched